Time,TemperatureF,DewpointF,PressureIn,WindDirection,WindDirectionDegrees,WindSpeedMPH,WindSpeedGustMPH,Humidity,HourlyPrecipIn,Conditions,Clouds,dailyrainin,SoftwareType,DateUTC
2013-01-25 00:00:00,23.0,-1.2,0.00,NNE,29,0.0,0.0,34,0.00,,---,0.00,VWS V13.01,2013-01-25 05:00:00,
2013-01-25 00:01:00,23.0,-1.2,0.00,NNE,29,0.0,0.0,34,0.00,,---,0.00,VWS V13.01,2013-01-25 05:01:00,
2013-01-25 00:02:00,23.0,-1.2,0.00,NNE,29,0.0,0.0,34,0.00,,---,0.00,VWS V13.01,2013-01-25 05:02:00,
2013-01-25 00:07:00,22.8,-1.3,0.00,NNE,28,0.0,4.0,34,0.00,,---,0.00,VWS V13.01,2013-01-25 05:07:00,
2013-01-25 00:12:00,22.8,-1.3,0.00,NNE,28,0.0,4.0,34,0.00,,---,0.00,VWS V13.01,2013-01-25 05:12:00,
2013-01-25 00:17:00,22.8,-1.3,0.00,NNE,28,0.0,4.0,34,0.00,,---,0.00,VWS V13.01,2013-01-25 05:17:00,
2013-01-25 00:22:00,22.6,-1.5,0.00,NNE,28,0.0,0.0,34,0.00,,---,0.00,VWS V13.01,2013-01-25 05:22:00,
2013-01-25 00:27:00,22.6,-1.5,0.00,NNE,28,0.0,0.0,34,0.00,,---,0.00,VWS V13.01,2013-01-25 05:27:00,
2013-01-25 00:32:00,22.6,-1.5,0.00,NNE,28,0.0,0.0,34,0.00,,---,0.00,VWS V13.01,2013-01-25 05:32:00,
2013-01-25 00:37:00,22.6,-0.9,0.00,NNE,28,0.0,0.0,35,0.00,,---,0.00,VWS V13.01,2013-01-25 05:37:00,
2013-01-25 00:42:00,22.6,-0.9,0.00,NNE,28,0.0,0.0,35,0.00,,---,0.00,VWS V13.01,2013-01-25 05:42:00,
2013-01-25 00:47:00,22.5,-1.0,0.00,NNE,28,0.0,0.0,35,0.00,,---,0.00,VWS V13.01,2013-01-25 05:47:00,
2013-01-25 00:52:00,22.5,-0.4,0.00,NNE,28,0.0,0.0,36,0.00,,---,0.00,VWS V13.01,2013-01-25 05:52:00,
2013-01-25 00:58:00,22.5,-1.0,0.00,NNE,28,0.0,0.0,35,0.00,,---,0.00,VWS V13.01,2013-01-25 05:58:00,
2013-01-25 01:03:00,22.5,-1.0,0.00,NNE,28,0.0,0.0,35,0.00,,---,0.00,VWS V13.01,2013-01-25 06:03:00,
2013-01-25 01:08:00,22.5,-0.4,0.00,NNE,28,0.0,0.0,36,0.00,,---,0.00,VWS V13.01,2013-01-25 06:08:00,
2013-01-25 01:13:00,22.5,-0.4,0.00,NNE,28,0.0,0.0,36,0.00,,---,0.00,VWS V13.01,2013-01-25 06:13:00,
2013-01-25 01:18:00,22.5,-0.4,0.00,NNE,28,0.0,0.0,36,0.00,,---,0.00,VWS V13.01,2013-01-25 06:18:00,
2013-01-25 01:23:00,22.3,-0.6,0.00,NNE,28,0.0,0.0,36,0.00,,---,0.00,VWS V13.01,2013-01-25 06:23:00,
2013-01-25 01:28:00,22.3,0.5,0.00,NNE,28,0.0,0.0,38,0.00,,---,0.00,VWS V13.01,2013-01-25 06:28:00,
2013-01-25 01:33:00,22.1,0.4,0.00,NNE,28,0.0,0.0,38,0.00,,---,0.00,VWS V13.01,2013-01-25 06:33:00,
2013-01-25 01:38:00,21.9,0.2,0.00,NNE,28,0.0,0.0,38,0.00,,---,0.00,VWS V13.01,2013-01-25 06:38:00,
2013-01-25 01:43:00,21.9,0.8,0.00,NNE,28,0.0,0.0,39,0.00,,---,0.00,VWS V13.01,2013-01-25 06:43:00,
2013-01-25 01:48:00,21.7,1.1,0.00,NNE,28,0.0,0.0,40,0.00,,---,0.00,VWS V13.01,2013-01-25 06:48:00,
2013-01-25 01:53:00,21.6,2.0,0.00,NNE,28,0.0,0.0,42,0.00,,---,0.00,VWS V13.01,2013-01-25 06:53:00,
2013-01-25 01:58:00,21.6,2.0,0.00,NNE,28,0.0,0.0,42,0.00,,---,0.00,VWS V13.01,2013-01-25 06:58:00,
2013-01-25 02:03:00,21.4,1.9,0.00,NNE,28,0.0,0.0,42,0.00,,---,0.00,VWS V13.01,2013-01-25 07:03:00,
2013-01-25 02:08:00,21.4,1.9,0.00,NNE,28,0.0,0.0,42,0.00,,---,0.00,VWS V13.01,2013-01-25 07:08:00,
2013-01-25 02:13:00,21.2,2.2,0.00,NNE,28,0.0,0.0,43,0.00,,---,0.00,VWS V13.01,2013-01-25 07:13:00,
2013-01-25 02:18:00,21.2,2.2,0.00,NNE,28,0.0,0.0,43,0.00,,---,0.00,VWS V13.01,2013-01-25 07:18:00,
2013-01-25 02:23:00,21.2,2.2,0.00,NNE,28,0.0,0.0,43,0.00,,---,0.00,VWS V13.01,2013-01-25 07:23:00,
2013-01-25 02:28:00,21.2,2.2,0.00,NNE,28,0.0,0.0,43,0.00,,---,0.00,VWS V13.01,2013-01-25 07:28:00,
2013-01-25 02:34:00,21.2,2.2,0.00,NNE,28,0.0,0.0,43,0.00,,---,0.00,VWS V13.01,2013-01-25 07:34:00,
2013-01-25 02:39:00,21.2,2.7,0.00,NNE,28,0.0,0.0,44,0.00,,---,0.00,VWS V13.01,2013-01-25 07:39:00,
2013-01-25 02:44:00,21.2,2.7,0.00,NNE,28,0.0,0.0,44,0.00,,---,0.00,VWS V13.01,2013-01-25 07:44:00,
2013-01-25 02:49:00,21.4,2.9,0.00,NNE,28,0.0,0.0,44,0.00,,---,0.00,VWS V13.01,2013-01-25 07:49:00,
2013-01-25 02:54:00,21.2,2.7,0.00,NNE,28,0.0,0.0,44,0.00,,---,0.00,VWS V13.01,2013-01-25 07:54:00,
2013-01-25 02:59:00,21.2,2.7,0.00,NNE,28,0.0,0.0,44,0.00,,---,0.00,VWS V13.01,2013-01-25 07:59:00,
2013-01-25 03:04:00,21.2,3.2,0.00,NNE,28,0.0,0.0,45,0.00,,---,0.00,VWS V13.01,2013-01-25 08:04:00,
2013-01-25 03:09:00,21.2,3.2,0.00,NNE,28,0.0,0.0,45,0.00,,---,0.00,VWS V13.01,2013-01-25 08:09:00,
2013-01-25 03:14:00,21.2,2.7,0.00,NNE,28,0.0,0.0,44,0.00,,---,0.00,VWS V13.01,2013-01-25 08:14:00,
2013-01-25 03:19:00,21.2,2.7,0.00,NNE,28,0.0,0.0,44,0.00,,---,0.00,VWS V13.01,2013-01-25 08:19:00,
2013-01-25 03:24:00,21.2,2.7,0.00,NNE,28,0.0,0.0,44,0.00,,---,0.00,VWS V13.01,2013-01-25 08:24:00,
2013-01-25 03:29:00,21.2,2.7,0.00,NNE,28,0.0,0.0,44,0.00,,---,0.00,VWS V13.01,2013-01-25 08:29:00,
2013-01-25 03:34:00,21.2,3.2,0.00,NNE,28,0.0,0.0,45,0.00,,---,0.00,VWS V13.01,2013-01-25 08:34:00,
2013-01-25 03:39:00,21.2,3.2,0.00,NNE,28,0.0,0.0,45,0.00,,---,0.00,VWS V13.01,2013-01-25 08:39:00,
2013-01-25 03:44:00,21.2,3.2,0.00,NNE,28,0.0,0.0,45,0.00,,---,0.00,VWS V13.01,2013-01-25 08:44:00,
2013-01-25 03:49:00,21.0,3.5,0.00,NNE,28,0.0,0.0,46,0.00,,---,0.00,VWS V13.01,2013-01-25 08:49:00,
2013-01-25 03:54:00,21.0,3.5,0.00,NNE,28,0.0,0.0,46,0.00,,---,0.00,VWS V13.01,2013-01-25 08:54:00,
2013-01-25 03:59:00,21.0,3.5,0.00,NNE,28,0.0,0.0,46,0.00,,---,0.00,VWS V13.01,2013-01-25 08:59:00,
2013-01-25 04:05:00,20.8,3.3,0.00,NNE,28,0.0,0.0,46,0.00,,---,0.00,VWS V13.01,2013-01-25 09:05:00,
2013-01-25 04:10:00,20.8,3.3,0.00,NNE,28,0.0,0.0,46,0.00,,---,0.00,VWS V13.01,2013-01-25 09:10:00,
2013-01-25 04:15:00,20.8,3.3,0.00,NNE,28,0.0,0.0,46,0.00,,---,0.00,VWS V13.01,2013-01-25 09:15:00,
2013-01-25 04:20:00,20.7,3.2,0.00,NNE,28,0.0,0.0,46,0.00,,---,0.00,VWS V13.01,2013-01-25 09:20:00,
2013-01-25 04:25:00,20.7,3.6,0.00,NNE,28,0.0,0.0,47,0.00,,---,0.00,VWS V13.01,2013-01-25 09:25:00,
2013-01-25 04:30:00,20.5,3.0,0.00,NNE,28,0.0,0.0,46,0.00,,---,0.00,VWS V13.01,2013-01-25 09:30:00,
2013-01-25 04:35:00,20.5,3.0,0.00,NNE,28,0.0,0.0,46,0.00,,---,0.00,VWS V13.01,2013-01-25 09:35:00,
2013-01-25 04:40:00,20.5,3.9,0.00,NNE,28,0.0,0.0,48,0.00,,---,0.00,VWS V13.01,2013-01-25 09:40:00,
2013-01-25 04:45:00,20.3,3.8,0.00,NNE,28,0.0,0.0,48,0.00,,---,0.00,VWS V13.01,2013-01-25 09:45:00,
2013-01-25 04:50:00,20.5,3.9,0.00,NNE,28,0.0,0.0,48,0.00,,---,0.00,VWS V13.01,2013-01-25 09:50:00,
2013-01-25 04:55:00,20.5,3.9,0.00,NNE,28,0.0,0.0,48,0.00,,---,0.00,VWS V13.01,2013-01-25 09:55:00,
2013-01-25 05:00:00,20.5,3.9,0.00,NNE,28,0.0,0.0,48,0.00,,---,0.00,VWS V13.01,2013-01-25 10:00:00,
2013-01-25 05:05:00,20.7,4.1,0.00,NNE,28,0.0,0.0,48,0.00,,---,0.00,VWS V13.01,2013-01-25 10:05:00,
2013-01-25 05:10:00,20.7,4.5,0.00,NNE,28,0.0,0.0,49,0.00,,---,0.00,VWS V13.01,2013-01-25 10:10:00,
2013-01-25 05:15:00,20.7,4.5,0.00,NNE,28,0.0,0.0,49,0.00,,---,0.00,VWS V13.01,2013-01-25 10:15:00,
2013-01-25 05:20:00,20.7,4.1,0.00,NNE,28,0.0,0.0,48,0.00,,---,0.00,VWS V13.01,2013-01-25 10:20:00,
2013-01-25 05:25:00,20.7,4.1,0.00,NNE,28,0.0,0.0,48,0.00,,---,0.00,VWS V13.01,2013-01-25 10:25:00,
2013-01-25 05:30:00,20.7,4.1,0.00,NNE,28,0.0,0.0,48,0.00,,---,0.00,VWS V13.01,2013-01-25 10:30:00,
2013-01-25 05:35:00,20.8,4.7,0.00,NNE,28,0.0,0.0,49,0.00,,---,0.00,VWS V13.01,2013-01-25 10:35:00,
2013-01-25 05:40:00,20.8,4.7,0.00,NNE,28,0.0,0.0,49,0.00,,---,0.00,VWS V13.01,2013-01-25 10:40:00,
2013-01-25 05:45:00,20.8,4.7,0.00,NNE,28,0.0,0.0,49,0.00,,---,0.00,VWS V13.01,2013-01-25 10:45:00,
2013-01-25 05:50:00,21.0,5.3,0.00,NNE,28,0.0,0.0,50,0.00,,---,0.00,VWS V13.01,2013-01-25 10:50:00,
2013-01-25 05:56:00,21.0,4.9,0.00,NNE,28,0.0,0.0,49,0.00,,---,0.00,VWS V13.01,2013-01-25 10:56:00,
2013-01-25 06:01:00,21.0,4.9,0.00,NNE,28,0.0,0.0,49,0.00,,---,0.00,VWS V13.01,2013-01-25 11:01:00,
2013-01-25 06:06:00,21.2,5.0,0.00,NNE,28,0.0,0.0,49,0.00,,---,0.00,VWS V13.01,2013-01-25 11:06:00,
2013-01-25 06:11:00,21.2,5.0,0.00,NNE,28,0.0,0.0,49,0.00,,---,0.00,VWS V13.01,2013-01-25 11:11:00,
2013-01-25 06:16:00,21.2,5.0,0.00,NNE,28,0.0,0.0,49,0.00,,---,0.00,VWS V13.01,2013-01-25 11:16:00,
2013-01-25 06:21:00,21.2,5.5,0.00,NNE,28,0.0,0.0,50,0.00,,---,0.00,VWS V13.01,2013-01-25 11:21:00,
2013-01-25 06:26:00,21.2,5.5,0.00,NNE,28,0.0,0.0,50,0.00,,---,0.00,VWS V13.01,2013-01-25 11:26:00,
2013-01-25 06:31:00,21.2,5.9,0.00,NNE,28,0.0,0.0,51,0.00,,---,0.00,VWS V13.01,2013-01-25 11:31:00,
2013-01-25 06:36:00,21.2,5.9,0.00,NNE,28,0.0,0.0,51,0.00,,---,0.00,VWS V13.01,2013-01-25 11:36:00,
2013-01-25 06:41:00,21.2,6.3,0.00,NNE,28,0.0,0.0,52,0.00,,---,0.00,VWS V13.01,2013-01-25 11:41:00,
2013-01-25 06:46:00,21.2,6.8,0.00,NNE,28,0.0,0.0,53,0.00,,---,0.00,VWS V13.01,2013-01-25 11:46:00,
2013-01-25 06:51:00,21.2,6.8,0.00,NNE,28,0.0,0.0,53,0.00,,---,0.00,VWS V13.01,2013-01-25 11:51:00,
2013-01-25 06:56:00,21.4,6.9,0.00,NNE,28,0.0,0.0,53,0.00,,---,0.00,VWS V13.01,2013-01-25 11:56:00,
2013-01-25 07:01:00,21.4,6.5,0.00,NNE,28,0.0,0.0,52,0.00,,---,0.00,VWS V13.01,2013-01-25 12:01:00,
2013-01-25 07:06:00,21.4,6.5,0.00,NNE,28,0.0,0.0,52,0.00,,---,0.00,VWS V13.01,2013-01-25 12:06:00,
2013-01-25 07:11:00,21.4,6.5,0.00,NNE,28,0.0,0.0,52,0.00,,---,0.00,VWS V13.01,2013-01-25 12:11:00,
2013-01-25 07:16:00,21.4,6.5,0.00,NNE,28,0.0,0.0,52,0.00,,---,0.00,VWS V13.01,2013-01-25 12:16:00,
2013-01-25 07:21:00,21.4,6.9,0.00,NNE,28,0.0,0.0,53,0.00,,---,0.00,VWS V13.01,2013-01-25 12:21:00,
2013-01-25 07:26:00,21.4,6.5,0.00,NNE,28,0.0,0.0,52,0.00,,---,0.00,VWS V13.01,2013-01-25 12:26:00,
2013-01-25 07:31:00,21.6,7.1,0.00,NNE,28,0.0,0.0,53,0.00,,---,0.00,VWS V13.01,2013-01-25 12:31:00,
2013-01-25 07:36:00,21.7,7.3,0.00,NNE,28,0.0,0.0,53,0.00,,---,0.00,VWS V13.01,2013-01-25 12:36:00,
2013-01-25 07:41:00,21.7,7.3,0.00,NE,53,0.0,0.0,53,0.00,,---,0.00,VWS V13.01,2013-01-25 12:41:00,
2013-01-25 07:46:00,21.9,7.8,0.00,SSE,162,2.7,4.0,54,0.00,,---,0.00,VWS V13.01,2013-01-25 12:46:00,
2013-01-25 07:51:00,22.1,6.8,0.00,North,353,0.0,4.0,51,0.00,,---,0.00,VWS V13.01,2013-01-25 12:51:00,
2013-01-25 07:56:00,22.3,6.0,0.00,ESE,123,0.0,4.0,49,0.00,,---,0.00,VWS V13.01,2013-01-25 12:56:00,
2013-01-25 08:01:00,22.5,6.2,0.00,South,183,0.0,0.0,49,0.00,,---,0.00,VWS V13.01,2013-01-25 13:01:00,
2013-01-25 08:06:00,22.6,5.9,0.00,West,265,0.0,0.0,48,0.00,,---,0.00,VWS V13.01,2013-01-25 13:06:00,
2013-01-25 08:11:00,23.0,6.2,0.00,West,259,0.0,0.0,48,0.00,,---,0.00,VWS V13.01,2013-01-25 13:11:00,
2013-01-25 08:16:00,23.2,5.5,0.00,WSW,244,0.0,2.7,46,0.00,,---,0.00,VWS V13.01,2013-01-25 13:16:00,
2013-01-25 08:21:00,23.2,5.0,0.00,WSW,244,0.0,0.0,45,0.00,,---,0.00,VWS V13.01,2013-01-25 13:21:00,
2013-01-25 08:26:00,23.4,5.2,0.00,WNW,289,0.0,3.1,45,0.00,,---,0.00,VWS V13.01,2013-01-25 13:26:00,
2013-01-25 08:32:00,23.5,5.3,0.00,WNW,288,0.0,3.1,45,0.00,,---,0.00,VWS V13.01,2013-01-25 13:32:00,
2013-01-25 08:37:00,23.5,5.3,0.00,SE,143,0.0,3.1,45,0.00,,---,0.00,VWS V13.01,2013-01-25 13:37:00,
2013-01-25 08:42:00,23.7,5.0,0.00,SSW,198,0.0,5.4,44,0.00,,---,0.00,VWS V13.01,2013-01-25 13:42:00,
2013-01-25 08:47:00,23.7,5.0,0.00,SW,217,3.1,5.4,44,0.00,,---,0.00,VWS V13.01,2013-01-25 13:47:00,
2013-01-25 08:52:00,23.7,5.0,0.00,WSW,250,2.7,5.4,44,0.00,,---,0.00,VWS V13.01,2013-01-25 13:52:00,
2013-01-25 08:57:00,23.7,4.5,0.00,West,276,4.0,5.4,43,0.00,,---,0.00,VWS V13.01,2013-01-25 13:57:00,
2013-01-25 09:02:00,23.9,4.7,0.00,SSW,210,2.7,3.6,43,0.00,,---,0.00,VWS V13.01,2013-01-25 14:02:00,
2013-01-25 09:07:00,23.9,4.7,0.00,WSW,240,2.7,5.4,43,0.00,,---,0.00,VWS V13.01,2013-01-25 14:07:00,
2013-01-25 09:12:00,24.1,4.8,0.00,South,186,3.1,5.4,43,0.00,,---,0.00,VWS V13.01,2013-01-25 14:12:00,
2013-01-25 09:17:00,24.1,4.8,0.00,SE,132,0.0,5.4,43,0.00,,---,0.00,VWS V13.01,2013-01-25 14:17:00,
2013-01-25 09:22:00,24.3,5.0,0.00,SE,127,2.7,5.4,43,0.00,,---,0.00,VWS V13.01,2013-01-25 14:22:00,
2013-01-25 09:27:00,24.3,5.0,0.00,SW,225,4.0,6.3,43,0.00,,---,0.00,VWS V13.01,2013-01-25 14:27:00,
2013-01-25 09:32:00,24.3,4.5,0.00,SSE,166,4.5,6.3,42,0.00,,---,0.00,VWS V13.01,2013-01-25 14:32:00,
2013-01-25 09:37:00,24.3,4.5,0.00,WSW,238,3.1,6.3,42,0.00,,---,0.00,VWS V13.01,2013-01-25 14:37:00,
2013-01-25 09:42:00,24.3,4.5,0.00,SW,227,5.4,6.3,42,0.00,,---,0.00,VWS V13.01,2013-01-25 14:42:00,
2013-01-25 09:47:00,24.4,4.7,0.00,WNW,285,8.7,8.7,42,0.00,,---,0.00,VWS V13.01,2013-01-25 14:47:00,
2013-01-25 09:52:00,24.4,4.7,0.00,NW,326,3.1,8.7,42,0.00,,---,0.00,VWS V13.01,2013-01-25 14:52:00,
2013-01-25 09:57:00,24.4,4.7,0.00,WNW,301,5.8,8.7,42,0.00,,---,0.00,VWS V13.01,2013-01-25 14:57:00,
2013-01-25 10:02:00,24.4,5.2,0.00,NW,325,3.6,10.5,43,0.00,,---,0.00,VWS V13.01,2013-01-25 15:02:00,
2013-01-25 10:07:00,24.3,5.5,0.00,SW,230,3.6,10.5,44,0.00,,---,0.00,VWS V13.01,2013-01-25 15:07:00,
2013-01-25 10:13:00,24.1,5.8,0.00,West,272,3.1,10.5,45,0.00,,---,0.00,VWS V13.01,2013-01-25 15:13:00,
2013-01-25 10:18:00,24.1,6.3,0.00,SW,231,5.4,10.5,46,0.00,,---,0.00,VWS V13.01,2013-01-25 15:18:00,
2013-01-25 10:23:00,24.1,6.3,0.00,WSW,243,4.0,5.4,46,0.00,,---,0.00,VWS V13.01,2013-01-25 15:23:00,
2013-01-25 10:28:00,24.1,6.3,0.00,West,274,3.1,5.4,46,0.00,,---,0.00,VWS V13.01,2013-01-25 15:28:00,
2013-01-25 10:33:00,24.1,6.3,0.00,SW,223,3.1,5.4,46,0.00,,---,0.00,VWS V13.01,2013-01-25 15:33:00,
2013-01-25 10:38:00,24.1,6.3,0.00,South,191,0.0,5.4,46,0.00,,---,0.00,VWS V13.01,2013-01-25 15:38:00,
2013-01-25 10:43:00,24.1,6.3,0.00,SSW,196,3.6,5.8,46,0.00,,---,0.00,VWS V13.01,2013-01-25 15:43:00,
2013-01-25 10:48:00,24.3,6.5,0.00,ESE,115,3.1,5.8,46,0.00,,---,0.00,VWS V13.01,2013-01-25 15:48:00,
2013-01-25 10:53:00,24.3,6.5,0.00,ESE,116,0.0,5.8,46,0.00,,---,0.00,VWS V13.01,2013-01-25 15:53:00,
2013-01-25 10:58:00,24.4,6.6,0.00,South,181,5.4,5.8,46,0.00,,---,0.00,VWS V13.01,2013-01-25 15:58:00,
2013-01-25 11:03:00,24.4,6.2,0.00,West,266,4.9,4.9,45,0.00,,---,0.00,VWS V13.01,2013-01-25 16:03:00,
2013-01-25 11:08:00,24.4,7.1,0.00,West,259,3.1,5.8,47,0.00,,---,0.00,VWS V13.01,2013-01-25 16:08:00,
2013-01-25 11:13:00,24.4,7.1,0.00,West,266,2.7,5.8,47,0.00,,---,0.00,VWS V13.01,2013-01-25 16:13:00,
2013-01-25 11:18:00,24.4,7.6,0.00,WSW,253,5.8,5.8,48,0.00,,---,0.00,VWS V13.01,2013-01-25 16:18:00,
2013-01-25 11:24:00,24.3,7.9,0.00,SSW,210,4.9,8.1,49,0.00,,---,0.00,VWS V13.01,2013-01-25 16:24:00,
2013-01-25 11:29:00,24.1,8.6,0.00,SW,214,3.1,8.1,51,0.00,,---,0.00,VWS V13.01,2013-01-25 16:29:00,
2013-01-25 11:34:00,24.1,9.0,0.00,SW,228,8.1,8.1,52,0.00,,---,0.00,VWS V13.01,2013-01-25 16:34:00,
2013-01-25 11:39:00,24.1,8.1,0.00,South,184,5.8,8.1,50,0.00,,---,0.00,VWS V13.01,2013-01-25 16:39:00,
2013-01-25 11:44:00,24.1,7.2,0.00,SW,219,5.4,7.6,48,0.00,,---,0.00,VWS V13.01,2013-01-25 16:44:00,
2013-01-25 11:49:00,23.9,7.5,0.00,NNW,328,5.4,7.6,49,0.00,,---,0.00,VWS V13.01,2013-01-25 16:49:00,
2013-01-25 11:54:00,23.9,8.0,0.00,ESE,116,5.4,7.6,50,0.00,,---,0.00,VWS V13.01,2013-01-25 16:54:00,
2013-01-25 11:59:00,24.1,8.6,0.00,SW,230,3.1,7.6,51,0.00,,---,0.00,VWS V13.01,2013-01-25 16:59:00,
2013-01-25 12:04:00,24.1,8.6,0.00,WSW,246,0.0,4.0,51,0.00,,---,0.00,VWS V13.01,2013-01-25 17:04:00,
2013-01-25 12:09:00,24.4,8.9,0.00,SE,144,2.7,4.0,51,0.00,,---,0.00,VWS V13.01,2013-01-25 17:09:00,
2013-01-25 12:14:00,24.4,8.5,0.00,SSW,204,3.6,6.3,50,0.00,,---,0.00,VWS V13.01,2013-01-25 17:14:00,
2013-01-25 12:19:00,24.6,8.6,0.00,East,98,0.0,6.3,50,0.00,,---,0.00,VWS V13.01,2013-01-25 17:19:00,
2013-01-25 12:24:00,24.6,8.2,0.00,SW,229,0.0,3.6,49,0.00,,---,0.00,VWS V13.01,2013-01-25 17:24:00,
2013-01-25 12:29:00,24.8,8.4,0.00,WSW,237,3.1,4.0,49,0.00,,---,0.00,VWS V13.01,2013-01-25 17:29:00,
2013-01-25 12:35:00,25.0,7.1,0.00,SW,218,5.8,8.1,46,0.00,,---,0.00,VWS V13.01,2013-01-25 17:35:00,
2013-01-25 12:40:00,25.0,6.2,0.00,WSW,244,3.6,8.1,44,0.00,,---,0.00,VWS V13.01,2013-01-25 17:40:00,
2013-01-25 12:45:00,25.0,6.2,0.00,SE,142,0.0,5.4,44,0.00,,---,0.00,VWS V13.01,2013-01-25 17:45:00,
2013-01-25 12:50:00,25.0,5.7,0.00,WNW,300,7.6,8.7,43,0.00,,---,0.00,VWS V13.01,2013-01-25 17:50:00,
2013-01-25 12:55:00,25.0,5.7,0.00,WNW,289,4.0,8.7,43,0.00,,---,0.00,VWS V13.01,2013-01-25 17:55:00,
2013-01-25 13:00:00,25.2,5.8,0.00,NW,322,3.6,4.0,43,0.00,,---,0.00,VWS V13.01,2013-01-25 18:00:00,
2013-01-25 13:05:00,25.2,6.3,0.00,SSE,151,0.0,4.9,44,0.00,,---,0.00,VWS V13.01,2013-01-25 18:05:00,
2013-01-25 13:10:00,25.2,7.8,0.00,South,191,5.4,5.4,47,0.00,,---,0.00,VWS V13.01,2013-01-25 18:10:00,
2013-01-25 13:15:00,25.0,8.1,0.00,SSW,193,3.6,6.3,48,0.00,,---,0.00,VWS V13.01,2013-01-25 18:15:00,
2013-01-25 13:20:00,24.8,9.7,0.00,NW,312,2.7,3.6,52,0.00,,---,0.00,VWS V13.01,2013-01-25 18:20:00,
2013-01-25 13:25:00,24.8,10.5,0.00,SSW,211,3.1,5.8,54,0.00,,---,0.00,VWS V13.01,2013-01-25 18:25:00,
2013-01-25 13:30:00,25.0,11.1,0.00,WNW,294,5.4,7.6,55,0.00,,---,0.00,VWS V13.01,2013-01-25 18:30:00,
2013-01-25 13:35:00,25.0,11.5,0.00,SW,236,3.6,7.6,56,0.00,,---,0.00,VWS V13.01,2013-01-25 18:35:00,
2013-01-25 13:40:00,25.0,11.5,0.00,SSW,192,5.4,8.1,56,0.00,,---,0.00,VWS V13.01,2013-01-25 18:40:00,
2013-01-25 13:45:00,25.0,12.7,0.00,SSW,197,3.6,8.1,59,0.00,,---,0.00,VWS V13.01,2013-01-25 18:45:00,
2013-01-25 13:50:00,25.3,13.8,0.00,SW,215,2.7,8.1,61,0.00,,---,0.00,VWS V13.01,2013-01-25 18:50:00,
2013-01-25 13:55:00,25.2,14.0,0.00,East,87,3.6,8.1,62,0.00,,---,0.00,VWS V13.01,2013-01-25 18:55:00,
2013-01-25 14:00:00,25.2,14.0,0.00,SW,219,3.6,5.4,62,0.00,,---,0.00,VWS V13.01,2013-01-25 19:00:00,
2013-01-25 14:06:00,25.2,14.7,0.00,NW,314,3.1,5.4,64,0.00,,---,0.00,VWS V13.01,2013-01-25 19:06:00,
2013-01-25 14:11:00,25.2,15.1,0.00,SSW,196,3.6,5.4,65,0.00,,---,0.00,VWS V13.01,2013-01-25 19:11:00,
2013-01-25 14:16:00,25.2,15.4,0.00,SE,136,3.1,5.4,66,0.00,,---,0.00,VWS V13.01,2013-01-25 19:16:00,
2013-01-25 14:21:00,25.0,15.2,0.00,SW,221,2.7,3.6,66,0.00,,---,0.00,VWS V13.01,2013-01-25 19:21:00,
2013-01-25 14:26:00,25.2,15.1,0.00,WSW,249,2.7,5.4,65,0.00,,---,0.00,VWS V13.01,2013-01-25 19:26:00,
2013-01-25 14:31:00,25.0,14.5,0.00,ENE,72,0.0,7.6,64,0.00,,---,0.00,VWS V13.01,2013-01-25 19:31:00,
2013-01-25 14:36:00,24.8,15.4,0.00,SW,216,0.0,7.6,67,0.00,,---,0.00,VWS V13.01,2013-01-25 19:36:00,
2013-01-25 14:41:00,24.6,15.2,0.00,WSW,238,2.2,7.2,67,0.00,,---,0.00,VWS V13.01,2013-01-25 19:41:00,
2013-01-25 14:46:00,24.6,15.2,0.00,SW,219,5.8,7.2,67,0.00,,---,0.00,VWS V13.01,2013-01-25 19:46:00,
2013-01-25 14:51:00,24.4,15.1,0.00,SSW,200,4.0,7.2,67,0.00,,---,0.00,VWS V13.01,2013-01-25 19:51:00,
2013-01-25 14:56:00,24.6,15.6,0.00,SSW,202,2.7,7.2,68,0.00,,---,0.00,VWS V13.01,2013-01-25 19:56:00,
2013-01-25 15:01:00,24.4,15.7,0.00,WSW,244,0.0,5.4,69,0.00,,---,0.00,VWS V13.01,2013-01-25 20:01:00,
2013-01-25 15:06:00,24.4,15.7,0.00,SE,143,3.6,5.4,69,0.00,,---,0.00,VWS V13.01,2013-01-25 20:06:00,
2013-01-25 15:11:00,24.4,15.7,0.00,WSW,244,2.7,5.4,69,0.00,,---,0.00,VWS V13.01,2013-01-25 20:11:00,
2013-01-25 15:16:00,24.4,16.1,0.00,WSW,254,2.2,5.4,70,0.00,,---,0.00,VWS V13.01,2013-01-25 20:16:00,
2013-01-25 15:21:00,24.4,16.1,0.00,West,264,2.7,3.6,70,0.00,,---,0.00,VWS V13.01,2013-01-25 20:21:00,
2013-01-25 15:26:00,24.4,16.4,0.00,SSW,209,0.0,3.6,71,0.00,,---,0.00,VWS V13.01,2013-01-25 20:26:00,
2013-01-25 15:31:00,24.6,16.6,0.00,WNW,295,3.1,3.6,71,0.00,,---,0.00,VWS V13.01,2013-01-25 20:31:00,
2013-01-25 15:36:00,24.6,16.6,0.00,SSW,196,0.0,3.6,71,0.00,,---,0.00,VWS V13.01,2013-01-25 20:36:00,
2013-01-25 15:42:00,24.6,16.6,0.00,SW,214,0.0,4.0,71,0.00,,---,0.00,VWS V13.01,2013-01-25 20:42:00,
2013-01-25 15:47:00,24.6,16.9,0.00,SSW,200,0.0,4.0,72,0.00,,---,0.00,VWS V13.01,2013-01-25 20:47:00,
2013-01-25 15:52:00,24.6,16.9,0.00,South,181,4.0,5.4,72,0.00,,---,0.00,VWS V13.01,2013-01-25 20:52:00,
2013-01-25 15:57:00,24.6,16.9,0.00,NW,322,0.0,5.4,72,0.00,,---,0.00,VWS V13.01,2013-01-25 20:57:00,
2013-01-25 16:02:00,24.6,16.9,0.00,SSW,209,0.0,3.6,72,0.00,,---,0.00,VWS V13.01,2013-01-25 21:02:00,
2013-01-25 16:07:00,24.8,17.1,0.00,NW,326,0.0,3.6,72,0.00,,---,0.00,VWS V13.01,2013-01-25 21:07:00,
2013-01-25 16:12:00,24.8,17.1,0.00,West,271,0.0,3.6,72,0.00,,---,0.00,VWS V13.01,2013-01-25 21:12:00,
2013-01-25 16:17:00,24.8,17.4,0.00,South,186,2.7,4.0,73,0.00,,---,0.00,VWS V13.01,2013-01-25 21:17:00,
2013-01-25 16:22:00,24.8,17.7,0.00,SSW,193,4.5,5.4,74,0.00,,---,0.00,VWS V13.01,2013-01-25 21:22:00,
2013-01-25 16:27:00,24.8,17.7,0.00,West,281,0.0,5.4,74,0.00,,---,0.00,VWS V13.01,2013-01-25 21:27:00,
2013-01-25 16:32:00,24.8,17.7,0.00,SSW,203,0.0,5.4,74,0.00,,---,0.00,VWS V13.01,2013-01-25 21:32:00,
2013-01-25 16:37:00,24.8,18.0,0.00,SSW,212,0.0,5.4,75,0.00,,---,0.00,VWS V13.01,2013-01-25 21:37:00,
2013-01-25 16:42:00,24.8,18.0,0.00,SSW,201,0.0,0.0,75,0.00,,---,0.00,VWS V13.01,2013-01-25 21:42:00,
2013-01-25 16:47:00,25.0,17.9,0.00,SSW,200,0.0,3.1,74,0.00,,---,0.00,VWS V13.01,2013-01-25 21:47:00,
2013-01-25 16:52:00,25.0,18.2,0.00,WSW,249,2.7,5.8,75,0.00,,---,0.00,VWS V13.01,2013-01-25 21:52:00,
2013-01-25 16:57:00,24.8,18.3,0.00,NW,308,3.1,5.8,76,0.00,,---,0.00,VWS V13.01,2013-01-25 21:57:00,
2013-01-25 17:02:00,24.8,18.6,0.00,West,269,0.0,5.8,77,0.00,,---,0.00,VWS V13.01,2013-01-25 22:02:00,
2013-01-25 17:07:00,24.8,18.6,0.00,SSW,196,5.4,6.3,77,0.00,,---,0.00,VWS V13.01,2013-01-25 22:07:00,
2013-01-25 17:12:00,24.8,18.9,0.00,SSW,204,0.0,6.3,78,0.00,,---,0.00,VWS V13.01,2013-01-25 22:12:00,
2013-01-25 17:17:00,24.8,18.9,0.00,SE,130,0.0,6.3,78,0.00,,---,0.00,VWS V13.01,2013-01-25 22:17:00,
2013-01-25 17:22:00,24.8,18.9,0.00,SW,233,0.0,0.0,78,0.00,,---,0.00,VWS V13.01,2013-01-25 22:22:00,
2013-01-25 17:27:00,25.0,18.8,0.00,SSE,151,0.0,0.0,77,0.00,,---,0.00,VWS V13.01,2013-01-25 22:27:00,
2013-01-25 17:32:00,25.0,18.8,0.00,North,353,0.0,0.0,77,0.00,,---,0.00,VWS V13.01,2013-01-25 22:32:00,
2013-01-25 17:37:00,25.2,19.3,0.00,SW,214,2.7,3.6,78,0.00,,---,0.00,VWS V13.01,2013-01-25 22:37:00,
2013-01-25 17:42:00,25.2,19.3,0.00,SSW,207,0.0,2.7,78,0.00,,---,0.00,VWS V13.01,2013-01-25 22:42:00,
2013-01-25 17:47:00,25.2,19.3,0.00,SW,234,0.0,4.0,78,0.00,,---,0.00,VWS V13.01,2013-01-25 22:47:00,
2013-01-25 17:52:00,25.2,19.3,0.00,SW,226,0.0,4.0,78,0.00,,---,0.00,VWS V13.01,2013-01-25 22:52:00,
2013-01-25 17:58:00,25.2,19.3,0.00,SW,226,0.0,4.0,78,0.00,,---,0.00,VWS V13.01,2013-01-25 22:58:00,
2013-01-25 18:03:00,25.3,19.5,0.00,SW,225,0.0,0.0,78,0.00,,---,0.00,VWS V13.01,2013-01-25 23:03:00,
2013-01-25 18:08:00,25.3,19.5,0.00,SSW,212,0.0,0.0,78,0.00,,---,0.00,VWS V13.01,2013-01-25 23:08:00,
2013-01-25 18:13:00,25.3,19.5,0.00,SSW,212,0.0,0.0,78,0.00,,---,0.00,VWS V13.01,2013-01-25 23:13:00,
2013-01-25 18:18:00,25.3,19.5,0.00,WSW,256,0.0,0.0,78,0.00,,---,0.00,VWS V13.01,2013-01-25 23:18:00,
2013-01-25 18:23:00,25.5,19.6,0.00,WNW,299,0.0,3.1,78,0.00,,---,0.00,VWS V13.01,2013-01-25 23:23:00,
2013-01-25 18:28:00,25.5,19.6,0.00,SW,226,0.0,3.1,78,0.00,,---,0.00,VWS V13.01,2013-01-25 23:28:00,
2013-01-25 18:33:00,25.5,19.6,0.00,South,188,0.0,4.0,78,0.00,,---,0.00,VWS V13.01,2013-01-25 23:33:00,
2013-01-25 18:38:00,25.7,19.8,0.00,SSW,206,0.0,4.0,78,0.00,,---,0.00,VWS V13.01,2013-01-25 23:38:00,
2013-01-25 18:43:00,25.7,19.8,0.00,SE,135,3.1,3.6,78,0.00,,---,0.00,VWS V13.01,2013-01-25 23:43:00,
2013-01-25 18:48:00,25.7,19.8,0.00,South,186,3.1,3.6,78,0.00,,---,0.00,VWS V13.01,2013-01-25 23:48:00,
2013-01-25 18:53:00,25.7,19.8,0.00,WNW,293,2.7,4.5,78,0.00,,---,0.00,VWS V13.01,2013-01-25 23:53:00,
2013-01-25 18:58:00,25.7,20.1,0.00,WNW,285,0.0,4.5,79,0.00,,---,0.00,VWS V13.01,2013-01-25 23:58:00,
2013-01-25 19:03:00,25.7,20.1,0.00,WNW,285,0.0,0.0,79,0.00,,---,0.00,VWS V13.01,2013-01-26 00:03:00,
2013-01-25 19:08:00,25.7,19.8,0.00,SW,228,0.0,0.0,78,0.00,,---,0.00,VWS V13.01,2013-01-26 00:08:00,
2013-01-25 19:13:00,25.9,20.0,0.00,WNW,292,0.0,0.0,78,0.00,,---,0.00,VWS V13.01,2013-01-26 00:13:00,
2013-01-25 19:18:00,25.9,20.0,0.00,SW,216,0.0,3.1,78,0.00,,---,0.00,VWS V13.01,2013-01-26 00:18:00,
2013-01-25 19:23:00,25.9,20.0,0.00,West,277,0.0,0.0,78,0.00,,---,0.00,VWS V13.01,2013-01-26 00:23:00,
2013-01-25 19:28:00,26.1,20.1,0.00,SW,224,4.0,4.0,78,0.00,,---,0.00,VWS V13.01,2013-01-26 00:28:00,
2013-01-25 19:33:00,25.9,20.0,0.00,WNW,285,0.0,4.0,78,0.00,,---,0.00,VWS V13.01,2013-01-26 00:33:00,
2013-01-25 19:38:00,25.9,20.0,0.00,WNW,295,0.0,4.0,78,0.00,,---,0.00,VWS V13.01,2013-01-26 00:38:00,
2013-01-25 19:43:00,25.9,20.0,0.00,South,180,0.0,0.0,78,0.00,,---,0.00,VWS V13.01,2013-01-26 00:43:00,
2013-01-25 19:48:00,25.9,20.0,0.00,West,268,0.0,3.1,78,0.00,,---,0.00,VWS V13.01,2013-01-26 00:48:00,
2013-01-25 19:53:00,25.9,20.0,0.00,SSW,197,0.0,3.6,78,0.00,,---,0.00,VWS V13.01,2013-01-26 00:53:00,
2013-01-25 19:58:00,26.1,20.1,0.00,WSW,253,2.2,3.6,78,0.00,,---,0.00,VWS V13.01,2013-01-26 00:58:00,
2013-01-25 20:03:00,26.1,20.1,0.00,West,270,0.0,4.9,78,0.00,,---,0.00,VWS V13.01,2013-01-26 01:03:00,
2013-01-25 20:08:00,26.1,20.1,0.00,WSW,257,0.0,5.8,78,0.00,,---,0.00,VWS V13.01,2013-01-26 01:08:00,
2013-01-25 20:13:00,26.1,20.1,0.00,West,262,2.7,5.8,78,0.00,,---,0.00,VWS V13.01,2013-01-26 01:13:00,
2013-01-25 20:18:00,26.1,20.1,0.00,WSW,257,2.7,5.8,78,0.00,,---,0.00,VWS V13.01,2013-01-26 01:18:00,
2013-01-25 20:24:00,26.1,19.9,0.00,West,272,0.0,3.1,77,0.00,,---,0.00,VWS V13.01,2013-01-26 01:24:00,
2013-01-25 20:29:00,26.1,19.9,0.00,WSW,248,3.6,4.9,77,0.00,,---,0.00,VWS V13.01,2013-01-26 01:29:00,
2013-01-25 20:34:00,25.9,19.7,0.00,WSW,242,0.0,4.9,77,0.00,,---,0.00,VWS V13.01,2013-01-26 01:34:00,
2013-01-25 20:39:00,25.9,19.7,0.00,WSW,247,3.6,5.4,77,0.00,,---,0.00,VWS V13.01,2013-01-26 01:39:00,
2013-01-25 20:44:00,25.9,19.7,0.00,WNW,303,0.0,4.0,77,0.00,,---,0.00,VWS V13.01,2013-01-26 01:44:00,
2013-01-25 20:49:00,26.1,19.9,0.00,SSW,199,0.0,4.0,77,0.00,,---,0.00,VWS V13.01,2013-01-26 01:49:00,
2013-01-25 20:54:00,26.1,19.9,0.00,WSW,258,2.7,4.0,77,0.00,,---,0.00,VWS V13.01,2013-01-26 01:54:00,
2013-01-25 20:59:00,26.1,19.9,0.00,South,181,6.7,6.7,77,0.00,,---,0.00,VWS V13.01,2013-01-26 01:59:00,
2013-01-25 21:04:00,26.1,19.9,0.00,West,274,2.2,3.6,77,0.00,,---,0.00,VWS V13.01,2013-01-26 02:04:00,
2013-01-25 21:09:00,26.1,19.9,0.00,WSW,245,0.0,3.6,77,0.00,,---,0.00,VWS V13.01,2013-01-26 02:09:00,
2013-01-25 21:14:00,26.1,20.1,0.00,WNW,291,2.2,3.6,78,0.00,,---,0.00,VWS V13.01,2013-01-26 02:14:00,
2013-01-25 21:19:00,26.2,20.3,0.00,WSW,252,0.0,3.6,78,0.00,,---,0.00,VWS V13.01,2013-01-26 02:19:00,
2013-01-25 21:24:00,26.2,20.3,0.00,SW,233,0.0,3.6,78,0.00,,---,0.00,VWS V13.01,2013-01-26 02:24:00,
2013-01-25 21:29:00,26.2,20.3,0.00,SW,234,0.0,5.4,78,0.00,,---,0.00,VWS V13.01,2013-01-26 02:29:00,
2013-01-25 21:34:00,26.2,20.3,0.00,West,272,2.7,5.4,78,0.00,,---,0.00,VWS V13.01,2013-01-26 02:34:00,
2013-01-25 21:39:00,26.2,20.3,0.00,SW,234,0.0,5.4,78,0.00,,---,0.00,VWS V13.01,2013-01-26 02:39:00,
2013-01-25 21:44:00,26.2,20.3,0.00,WSW,244,0.0,2.7,78,0.00,,---,0.00,VWS V13.01,2013-01-26 02:44:00,
2013-01-25 21:49:00,26.2,20.3,0.00,WNW,297,3.1,4.9,78,0.00,,---,0.00,VWS V13.01,2013-01-26 02:49:00,
2013-01-25 21:54:00,26.4,20.5,0.00,NW,305,0.0,4.9,78,0.00,,---,0.00,VWS V13.01,2013-01-26 02:54:00,
2013-01-25 21:59:00,26.4,20.5,0.00,South,186,0.0,5.4,78,0.00,,---,0.00,VWS V13.01,2013-01-26 02:59:00,
2013-01-25 22:04:00,26.4,20.5,0.00,WSW,239,3.1,4.0,78,0.00,,---,0.00,VWS V13.01,2013-01-26 03:04:00,
2013-01-25 22:09:00,26.4,20.5,0.00,WSW,246,0.0,4.9,78,0.00,,---,0.00,VWS V13.01,2013-01-26 03:09:00,
2013-01-25 22:14:00,26.4,20.5,0.00,West,267,3.1,4.9,78,0.00,,---,0.00,VWS V13.01,2013-01-26 03:14:00,
2013-01-25 22:19:00,26.4,20.8,0.00,NNE,12,0.0,4.9,79,0.00,,---,0.00,VWS V13.01,2013-01-26 03:19:00,
2013-01-25 22:25:00,26.4,20.5,0.00,WSW,252,3.6,4.9,78,0.00,,---,0.00,VWS V13.01,2013-01-26 03:25:00,
2013-01-25 22:30:00,26.6,20.7,0.00,WNW,294,0.0,4.9,78,0.00,,---,0.00,VWS V13.01,2013-01-26 03:30:00,
2013-01-25 22:35:00,26.6,21.0,0.00,WNW,291,0.0,4.9,79,0.00,,---,0.00,VWS V13.01,2013-01-26 03:35:00,
2013-01-25 22:40:00,26.6,21.0,0.00,West,278,2.7,4.9,79,0.00,,---,0.00,VWS V13.01,2013-01-26 03:40:00,
2013-01-25 22:45:00,26.8,20.9,0.00,NW,308,4.0,4.0,78,0.00,,---,0.00,VWS V13.01,2013-01-26 03:45:00,
2013-01-25 22:50:00,26.8,20.9,0.00,WNW,284,2.7,4.0,78,0.00,,---,0.00,VWS V13.01,2013-01-26 03:50:00,
2013-01-25 22:55:00,26.8,20.9,0.00,WSW,255,2.2,4.0,78,0.00,,---,0.00,VWS V13.01,2013-01-26 03:55:00,
2013-01-25 23:00:00,26.8,20.9,0.00,SSW,211,2.7,4.0,78,0.00,,---,0.00,VWS V13.01,2013-01-26 04:00:00,
2013-01-25 23:05:00,27.0,21.0,0.00,West,259,0.0,4.0,78,0.00,,---,0.00,VWS V13.01,2013-01-26 04:05:00,
2013-01-25 23:10:00,27.0,21.0,0.00,SW,221,2.7,4.0,78,0.00,,---,0.00,VWS V13.01,2013-01-26 04:10:00,
2013-01-25 23:15:00,26.8,20.9,0.00,WSW,256,0.0,4.9,78,0.00,,---,0.00,VWS V13.01,2013-01-26 04:15:00,
2013-01-25 23:20:00,26.6,20.7,0.00,West,263,2.2,2.2,78,0.00,,---,0.00,VWS V13.01,2013-01-26 04:20:00,
2013-01-25 23:25:00,26.4,20.5,0.00,SW,227,0.0,4.0,78,0.00,,---,0.00,VWS V13.01,2013-01-26 04:25:00,
2013-01-25 23:30:00,26.2,20.3,0.00,West,275,0.0,4.0,78,0.00,,---,0.00,VWS V13.01,2013-01-26 04:30:00,
2013-01-25 23:35:00,26.1,20.1,0.00,WSW,250,0.0,4.0,78,0.00,,---,0.00,VWS V13.01,2013-01-26 04:35:00,
2013-01-25 23:40:00,26.1,20.1,0.00,WSW,238,0.0,0.0,78,0.00,,---,0.00,VWS V13.01,2013-01-26 04:40:00,
2013-01-25 23:45:00,25.9,20.0,0.00,West,265,0.0,5.4,78,0.00,,---,0.00,VWS V13.01,2013-01-26 04:45:00,
2013-01-25 23:50:00,25.7,19.8,0.00,WSW,252,0.0,5.4,78,0.00,,---,0.00,VWS V13.01,2013-01-26 04:50:00,
2013-01-25 23:55:00,25.5,19.6,0.00,ESE,108,0.0,5.4,78,0.00,,---,0.00,VWS V13.01,2013-01-26 04:55:00,